CZ-6A DEB, 61080

Orbit data source: Space-Track

CZ-6A DEB, 61080 is space debris in LEO originally from a launch on Tue, 06 Aug 2024 UTC launched from the Taiyaun Space Center, China (TSC). Debris objects in space refer to the collection of defunct objects orbiting the Earth. Examples of debris include non-operational satellites, rocket bodies, and fragments generated from explosions, collisions, or faulty payload assembly.

Loading next visibility...
Identifier
61080, 2024-140MW
Orbit
LEO
Country
Flag of CNCN / PRC
Related business
Manufacturer
SAST
Mission
Spacecraft
Bus & Motor
Unknown
Mass
Unknown
Launch date (UTC)
2024-08-06 (2 years ago)
Launch vehicle
Unknown
Launch site
Taiyaun Space Center, China (TSC)
Object type
Payload
Rocket body
Debris
Shape & HBR
Unknown shape, 0.2 m
Radar Cross Section
Medium (>0.1 m² and <1 m²)

Expand to show TLE details & history
Last TLE update: 13 hours ago

TLE from 13 hours ago
0 CZ-6A DEB
1 61080U 24140MW  26171.36283212  .00003997  00000-0  11870-2 0  9997
2 61080  89.2453 292.2213 0018525 236.1551 123.7889 14.43028966 95334
Epoch: 2026-06-20T08:42Z
TLE epoch observation values (Epoch: 2026-06-20T08:42:28.695Z)
Latitude
-0.00005°
Longitude
-106.9768°
Altitude
758.956 km
Speed
7.471 km/s
True Right ascension
19h 28m 53s
True Declination
0° 00' 00"
Sunlit
Object was in full shadow at epoch
Visualization orbit readout
Latitude
Unknown
Longitude
Unknown
Altitude
Unknown
Speed
Unknown
Apparent Right ascension
Unknown
Apparent Declination
Unknown
Sunlit
N/A
Visualization observer readout
Local Sidereal Time
08:42:28
Azimuth
Unknown
Elevation
Unknown
Doppler factor
Unknown
Orbital elements
Apogee altitude
758.622 km
Perigee altitude
732.229 km
Semi-major axis
7,123.562 km
Eccentricity
0.00185
Inclination
89.2453°
RAAN
292.2213°
Arg. of periapsis
236.1551°
True anomaly
123.9651°
Mean anomaly
123.7889°
Eccentric anomaly
123.87702°
Mean motion
3.60992 °/min
Orbital period
99.73 mins
BSTAR
0.001187
Loading maneuver chart data...
Computing Atmospheric mass density...
Loading historical data...
Loading historical data...
Loading historical data...
Loading historical data...
Loading historical data...
Loading historical data...
Loading historical data...

Documentation

Showing up to 5 results
|